This is the latest recevied weather packets stored in our database for station/object K5UBE. If no packets are shown the sender has not sent any weather packets the latest 1 day(s).
| Time | Temp. | Humidity | Pressure | Rain* | Wind** | Luminosity | Snow |
|---|---|---|---|---|---|---|---|
| 1778068869 | 5° C | 85% | 1017.3 hPa | 0 mm | - | - | - |
| 1778068568 | 5° C | 85% | 1017.2 hPa | 0 mm | - | - | - |
| 1778065844 | 3.89° C | 86% | 1017 hPa | 0 mm | - | - | - |
| 1778065542 | 3.89° C | 85% | 1016.8 hPa | 0 mm | - | - | - |
| 1778065239 | 4.44° C | 85% | 1017.1 hPa | 0 mm | - | - | - |
| 1778064935 | 4.44° C | 85% | 1017 hPa | 0 mm | - | - | - |
| 1778064028 | 4.44° C | 83% | 1017.1 hPa | 0 mm | - | - | - |
| 1778063725 | 4.44° C | 83% | 1017 hPa | 0 mm | - | - | - |
| 1778062817 | 5° C | 82% | 1016.7 hPa | 0 mm | - | - | - |
| 1778061909 | 5° C | 81% | 1016.5 hPa | 0 mm | - | - | - |
| 1778061607 | 5° C | 81% | 1016.3 hPa | 0 mm | - | - | - |
| 1778060699 | 5.56° C | 80% | 1016.3 hPa | 0 mm | - | - | - |
| 1778060094 | 5.56° C | 80% | 1016.2 hPa | 0 mm | - | - | - |
| 1778059792 | 5.56° C | 80% | 1016.1 hPa | 0 mm | - | - | - |
| 1778058884 | 6.11° C | 80% | 1016.1 hPa | 0 mm | - | - | - |
| 1778058581 | 6.11° C | 80% | 1015.8 hPa | 0 mm | - | - | - |
| 1778058279 | 6.11° C | 80% | 1015.7 hPa | 0 mm | - | - | - |
| 1778057975 | 6.11° C | 79% | 1015.6 hPa | 0 mm | - | - | - |
| 1778057672 | 6.67° C | 79% | 1015.7 hPa | 0 mm | - | - | - |
| 1778057368 | 6.67° C | 79% | 1015.4 hPa | 0 mm | - | - | - |
| 1778057066 | 6.67° C | 78% | 1015 hPa | 0 mm | - | - | - |
| 1778056761 | 6.67° C | 78% | 1015.2 hPa | 0 mm | - | - | - |
| 1778056459 | 6.67° C | 78% | 1015.2 hPa | 0 mm | - | - | - |
| 1778056157 | 6.67° C | 78% | 1015 hPa | 0 mm | - | - | - |
| 1778055548 | 7.22° C | 78% | 1014.9 hPa | 0 mm | - | - | - |
* Rain latest hour (hover to see other rain measurements)
** Current wind speed in m/s (hover to see current wind gust speed)